,

(GMT )
Al Udeid

Weather History for KQIR - November, 2013

Change the Weather History Date:

Friday, November 8, 2013

  Actual Average Record
Temperature  
Mean Temperature 74 °F -  
Max Temperature 84 °F - - ()
Min Temperature 65 °F - - ()
Cooling Degree Days 10    
Growing Degree Days 24 (Base 50)    
Moisture  
Dew Point 60 °F    
Average Humidity 59    
Maximum Humidity 75    
Minimum Humidity 42    
Precipitation  
Precipitation 0.00 in - - ()
Sea Level Pressure  
Sea Level Pressure 29.98 in    
Wind  
Wind Speed 4 mph ()    
Max Wind Speed 12 mph    
Max Gust Speed -    
Visibility 6.2 miles    
Events      
Averages and records for this station are not official NWS values.
T = Trace of Precipitation, MM = Missing Value Source: Averaged Metar Reports

Daily Weather History Graph

Daily Weather History Graph

Search for Another Location

Airport or City:

Trip Planner

Search our weather history database for the weather conditions in past years. The results will help you decide how hot, cold, wet, or windy it might be!

Date:

Astronomy

Nov. 08, 2013 Rise Set
Actual Time 5:46 AM +03 4:49 PM +03
Civil Twilight 5:22 AM +03 5:13 PM +03
Nautical Twilight 4:55 AM +03 5:41 PM +03
Astronomical Twilight 4:28 AM +03 6:08 PM +03
Moon 10:22 AM +03 (11/8) 9:43 PM +03 (11/8)
Length of Visible Light 11h 50m
Length of Day
11h 03m
Waxing Crescent, 29% of the Moon is Illuminated
Nov 8
Waxing Crescent
Nov 10
First Quarter
Nov 17
Full
Nov 25
Last Quarter
Dec 3
New

Hourly Weather History & Observations

Time (+03) Temp. Heat Index Dew Point Humidity Pressure Visibility Wind Dir Wind Speed Gust Speed Precip Events Conditions
12:55 AM 69.1 °F - 59.7 °F 72% 29.97 in 6.2 mi NNW 5.8 mph - N/A   Clear
1:55 AM 68.0 °F - 58.6 °F 72% 29.97 in 6.2 mi Calm Calm - N/A   Clear
2:55 AM 67.3 °F - 59.0 °F 75% 29.97 in 6.2 mi NNW 3.5 mph - N/A   Clear
3:55 AM 66.2 °F - 57.9 °F 75% 29.97 in 6.2 mi Calm Calm - N/A   Clear
4:55 AM 65.5 °F - 57.4 °F 75% 29.99 in 6.2 mi NNW 3.5 mph - N/A   Clear
5:55 AM 66.6 °F - 58.1 °F 74% 30.01 in 6.2 mi NNW 4.6 mph - N/A   Clear
6:55 AM 67.6 °F - 58.8 °F 73% 30.02 in 6.2 mi NNW 3.5 mph - N/A   Clear
7:55 AM 74.3 °F - 62.4 °F 66% 30.04 in 6.2 mi NNW 3.5 mph - N/A   Clear
8:55 AM 78.3 °F - 62.8 °F 59% 30.04 in 6.2 mi Calm Calm - N/A   Clear
9:55 AM 81.9 °F 82.8 °F 61.9 °F 51% 30.02 in 6.2 mi ESE 5.8 mph - N/A   Clear
10:55 AM 83.1 °F 83.3 °F 60.4 °F 46% 30.00 in 6.2 mi Variable 4.6 mph - N/A   Clear
11:55 AM 84.9 °F 84.6 °F 59.2 °F 42% 29.98 in 6.2 mi ESE 4.6 mph - N/A   Clear
12:55 PM 84.9 °F 84.6 °F 59.5 °F 42% 29.95 in 6.2 mi East 6.9 mph - N/A   Clear
1:55 PM 84.9 °F 84.6 °F 59.5 °F 42% 29.94 in 6.2 mi ESE 6.9 mph - N/A   Clear
2:55 PM 84.0 °F 83.8 °F 59.0 °F 43% 29.94 in 6.2 mi ESE 6.9 mph - N/A   Clear
3:55 PM 82.8 °F 82.7 °F 58.8 °F 44% 29.94 in 6.2 mi ENE 11.5 mph - N/A   Clear
4:55 PM 81.0 °F 81.6 °F 59.9 °F 49% 29.95 in 6.2 mi East 9.2 mph - N/A   Clear
5:55 PM 79.5 °F - 60.8 °F 53% 29.96 in 6.2 mi East 8.1 mph - N/A   Clear
6:55 PM 77.7 °F - 59.5 °F 53% 29.96 in 6.2 mi East 4.6 mph - N/A   Clear
7:55 PM 76.3 °F - 59.9 °F 57% 29.98 in 6.2 mi East 5.8 mph - N/A   Clear
8:55 PM 75.2 °F - 60.3 °F 60% 29.97 in 6.2 mi East 4.6 mph - N/A   Clear
9:55 PM 75.6 °F - 61.3 °F 61% 29.96 in 6.2 mi Calm Calm - N/A   Clear
10:55 PM 75.2 °F - 61.5 °F 62% 29.96 in 6.2 mi Calm Calm - N/A   Clear
11:55 PM 73.9 °F - 61.7 °F 65% 29.95 in 6.2 mi ENE 4.6 mph - N/A   Clear